This demonstration page uses our WeatherBlox Daily Observations layout. Learn more.

Left ArrowRight Arrow

Hourly Observations for June 11, 2021

Temp ( °F °C ) Dew Point ( °F °C ) Humidity (%) Winds ( mph kmh ) Pressure ( in mb ) Visibility ( mi km ) Precip ( " mm )
12:53 am 00:53 Clear 84 28.9 68 20 59 59 SSE 21 33 29.67 1005 10 16 0.00 0.00
1:53 am 01:53 Clear 83 28.3 67 19.4 59 59 SSE 17 28 29.66 1005 10 16 0.00 0.00
2:53 am 02:53 Clear 82 27.8 65 18.3 56 56 SSE 15 24 29.65 1004 10 16 0.00 0.00
3:53 am 03:53 Clear 81 27.2 64 17.8 57 57 SSE 15 24 29.64 1004 10 16 0.00 0.00
4:53 am 04:53 Clear 79 26.1 64 17.8 60 60 SE 16 26 29.64 1004 10 16 0.00 0.00
5:53 am 05:53 Clear 77 25 64 17.8 64 64 SSE 9 15 29.65 1004 10 16 0.00 0.00
6:53 am 06:53 Sunny 75 23.9 65 18.3 71 71 SSE 6 9 29.67 1005 10 16 0.00 0.00
7:53 am 07:53 Sunny 76 24.4 65 18.3 69 69 SE 3 6 29.68 1005 10 16 0.00 0.00
8:53 am 08:53 Sunny 80 26.7 66 18.9 62 62 ESE 9 15 29.70 1006 10 16 0.00 0.00
9:53 am 09:53 Sunny 85 29.4 66 18.9 53 53 SE 8 13 29.70 1006 10 16 0.00 0.00
10:53 am 10:53 Sunny 92 33.3 64 17.8 40 40 VRB 7 11 29.70 1006 10 16 0.00 0.00
11:53 am 11:53 Sunny 97 36.1 61 16.1 30 30 Calm 29.70 1006 10 16 0.00 0.00
12:53 pm 12:53 Sunny 100 37.8 57 13.9 24 24 W 5 7 29.68 1005 10 16 0.00 0.00
1:53 pm 13:53 Sunny 106 41.1 53 11.7 17 17 N 8 13 29.67 1005 10 16 0.00 0.00
2:53 pm 14:53 Sunny 106 41.1 49 9.4 15 15 E 8 13 29.65 1004 10 16 0.00 0.00
3:53 pm 15:53 Sunny 108 42.2 49 9.4 14 14 VRB 7 11 29.64 1004 10 16 0.00 0.00
4:53 pm 16:53 Sunny 109 42.8 47 8.3 12 12 E 8 13 29.61 1003 10 16 0.00 0.00
5:53 pm 17:53 Sunny 109 42.8 46 7.8 12 12 Calm 29.60 1002 10 16 0.00 0.00
6:53 pm 18:53 Sunny 108 42.2 44 6.7 12 12 W 5 7 29.59 1002 10 16 0.00 0.00
7:53 pm 19:53 Sunny 106 41.1 48 8.9 14 14 S 8 13 29.60 1002 10 16 0.00 0.00
8:53 pm 20:53 Sunny 99 37.2 62 16.7 30 30 SSE 21 33 29.62 1003 10 16 0.00 0.00
9:53 pm 21:53 Clear 95 35 63 17.2 35 35 SSE 22 35 29.64 1004 10 16 0.00 0.00
10:53 pm 22:53 Clear 91 32.8 62 16.7 38 38 SSE 21 33 29.66 1005 10 16 0.00 0.00
11:53 pm 23:53 Clear 88 31.1 62 16.7 42 42 SSE 18 30 29.68 1005 10 16 0.00 0.00

Powered by AerisWeather